Location: North Evanston
(42.0634°N, 87.6976°W)
Time: 23:00:55
(UTC+00:00)

Transit 2A - Pass Details

Date: 18 May 2026
Orbit: 595 x 949 km, 66.7° (Epoch: 5 June)

Event Time Altitude Azimuth Distance (km) Brightness Sun altitude
Rises 21:54:15 0° 243° (WSW) 3,575 10.3 33.8°
Reaches altitude 10° 21:57:13 10° 254° (WSW) 2,603 10.1 33.3°
Maximum altitude 22:02:22 28° 312° (NW) 1,583 8.6 32.3°
Drops below altitude 10° 22:07:13 10° 11° (N) 2,442 8.6 31.4°
Sets 22:09:56 0° 23° (NNE) 3,316 9.1 30.9°
